Apalachicola, FL

12:26 PM EDT on August 31, 2016 (GMT -0400)
Apalachicola Municipal

Weather History for KAAF - October, 2012

Change the Weather History Date:

Sunday, October 7, 2012

  Actual Average Record
Temperature  
Mean Temperature 80 °F 74 °F  
Max Temperature 89 °F 83 °F 92 °F (1998)
Min Temperature 70 °F 64 °F 47 °F (2010)
Degree Days  
Heating Degree Days 0    
Month to date heating degree days 0  
Since 1 July heating degree days 0  
Cooling Degree Days 15    
Month to date cooling degree days 93  
Year to date cooling degree days 2607  
Growing Degree Days 30 (Base 50)    
Moisture  
Dew Point 68 °F    
Average Humidity 72    
Maximum Humidity 93    
Minimum Humidity 50    
Precipitation  
Precipitation T in 0.16 in 4.65 in (1959)
Month to date precipitation 0.61 1.24  
Year to date precipitation 55.32 47.91  
Sea Level Pressure  
Sea Level Pressure 29.96 in    
Wind  
Wind Speed 6 mph (NNE)    
Max Wind Speed 13 mph    
Max Gust Speed 16 mph    
Visibility 10 miles    
Events      
T = Trace of Precipitation, MM = Missing Value Source: NWS Daily Summary

Daily Weather History Graph

Daily Weather History Graph

Search for Another Location

Airport or City:

Trip Planner

Search our weather history database for the weather conditions in past years. The results will help you decide how hot, cold, wet, or windy it might be!

Date:

Astronomy

Oct. 07, 2012 Rise Set
Actual Time 7:37 AM EDT 7:17 PM EDT
Civil Twilight 7:13 AM EDT 7:41 PM EDT
Nautical Twilight 6:45 AM EDT 8:09 PM EDT
Astronomical Twilight 6:17 AM EDT 8:37 PM EDT
Moon No Moon Rise 1:56 PM EDT (10/7)
Length of Visible Light 12h 28m
Length of Day
11h 40m
Waning Gibbous, 56% of the Moon is Illuminated
Oct 7
Waning Gibbous
Oct 8
Last Quarter
Oct 15
New
Oct 21
First Quarter
Oct 29
Full

Hourly Weather History & Observations

Time (EDT) Temp. Heat Index Dew Point Humidity Pressure Visibility Wind Dir Wind Speed Gust Speed Precip Events Conditions
12:53 AM 73.4 °F - 69.8 °F 88% 29.96 in 10.0 mi NNW 3.5 mph - N/A   Clear
1:53 AM 73.0 °F - 70.0 °F 90% 29.95 in 10.0 mi Calm Calm - N/A   Clear
2:53 AM 73.4 °F - 69.8 °F 88% 29.95 in 10.0 mi Calm Calm - N/A   Clear
3:53 AM 73.0 °F - 69.1 °F 87% 29.94 in 10.0 mi North 3.5 mph - N/A   Partly Cloudy
4:53 AM 72.0 °F - 69.1 °F 91% 29.93 in 10.0 mi Calm Calm - N/A   Clear
5:53 AM 71.1 °F - 68.0 °F 90% 29.94 in 10.0 mi North 4.6 mph - N/A   Clear
6:53 AM 71.1 °F - 68.0 °F 90% 29.96 in 10.0 mi NNE 4.6 mph - N/A   Partly Cloudy
7:53 AM 71.1 °F - 66.0 °F 84% 29.97 in 10.0 mi NNE 8.1 mph - N/A   Partly Cloudy
8:53 AM 73.0 °F - 66.9 °F 81% 29.99 in 10.0 mi NNE 8.1 mph - N/A   Clear
9:53 AM 78.1 °F - 66.0 °F 66% 29.99 in 10.0 mi NE 8.1 mph - N/A   Clear
10:53 AM 82.9 °F 85.4 °F 66.9 °F 58% 30.00 in 10.0 mi NNE 5.8 mph - N/A   Clear
11:53 AM 86.0 °F 88.2 °F 66.0 °F 51% 29.99 in 10.0 mi NE 6.9 mph - N/A   Clear
12:53 PM 88.0 °F 90.7 °F 66.9 °F 49% 29.98 in 10.0 mi NNE 8.1 mph - N/A   Clear
1:53 PM 87.1 °F 89.9 °F 66.9 °F 51% 29.96 in 10.0 mi NNW 5.8 mph - N/A   Mostly Cloudy
2:53 PM 88.0 °F 90.7 °F 66.9 °F 49% 29.94 in 10.0 mi NW 8.1 mph - N/A   Mostly Cloudy
3:53 PM 84.9 °F 87.6 °F 66.9 °F 55% 29.94 in 10.0 mi North 5.8 mph - N/A   Mostly Cloudy
4:53 PM 84.0 °F 88.4 °F 70.0 °F 63% 29.93 in 10.0 mi South 10.4 mph - N/A   Mostly Cloudy
5:53 PM 82.9 °F 87.5 °F 71.1 °F 67% 29.94 in 10.0 mi South 9.2 mph - N/A   Scattered Clouds
6:53 PM 82.0 °F 86.3 °F 71.1 °F 69% 29.94 in 10.0 mi South 4.6 mph - N/A   Mostly Cloudy
7:53 PM 80.1 °F 83.8 °F 72.0 °F 76% 29.95 in 10.0 mi Calm Calm - N/A   Overcast
8:06 PM 80.6 °F 83.2 °F 68.0 °F 65% 29.96 in 10.0 mi NNE 9.2 mph - N/A   Overcast
8:53 PM 77.0 °F - 70.0 °F 79% 29.98 in 10.0 mi NNE 5.8 mph - 0.00 in   Overcast
9:53 PM 75.9 °F - 69.1 °F 79% 30.00 in 10.0 mi NNE 4.6 mph - N/A   Overcast
10:53 PM 75.0 °F - 66.9 °F 76% 30.01 in 10.0 mi NNE 6.9 mph - N/A   Clear
11:53 PM 73.9 °F - 66.0 °F 76% 30.00 in 10.0 mi North 5.8 mph - N/A   Clear